カタログに戻る

COSMOS 1947

GLONASS

運用中ナビゲーションMEO
NORAD 19164·PAYLOAD·🇷🇺 Russia

打ち上げ May 21, 1988 から Baikonur Cosmodrome

Loading…

次のパス (今後24時間)

TLE

最新Source: Space-Track

元期: Sep 13, 2026, 09:47 UTC

1 19164U 88043B   26256.40771751 -.00000008  00000-0  00000-0 0  9996
2 19164  65.0193  70.5197 0023884 223.9145 139.8317  2.13104110293185

AllMySatでCOSMOS 1947をリアルタイム追跡

Download on the App Store